User: anonymous   Login
Location: Bavegemberg
(50.9500°N, 3.8833°E)
Time: 00:12:43
(UTC+00:00)
Language:

GP-B - Orbit

View from above orbital plane
View from above orbital plane
View from above satellite
View from above satellite

Ground track
Ground track

The orbit data is extracted from the following two-line orbital elements,

1 28230U 04014A   24194.61203479  .00001186  00000-0  15146-3 0  9992
2 28230  89.8268  64.5752 0002021  80.1748 279.9704 14.80916878547972
Epoch (UTC): 12 July 2024 14:41:19
Eccentricity: 0.0002021
inclination: 89.8268°
perigee height: 625 km
apogee height: 628 km
right ascension of ascending node: 64.5752°
argument of perigee: 80.1748°
revolutions per day: 14.80916878
mean anomaly at epoch: 279.9704°
orbit number at epoch: 54797

The dashed part of the orbit path shows where the satellite is in the earth's shadow,  

DLR